Location: Asni�res
(49.1337°N, 2.3555°E)
Time: 03:16:26
(UTC+00:00)

Cosmos 1626 Rocket - Pass Details

Date: 02 June 2022
Orbit: 602 x 631 km, 82.5° (Epoch: 04 July)

Event Time Altitude Azimuth Distance (km) Brightness Sun altitude
Exits shadow 02:30:54 - 170° (S) 2,597 6.4 -10.1°
Reaches altitude 10° 02:32:29 10° 165° (SSE) 1,973 5.8 -9.9°
Maximum altitude 02:36:38 45° 93° (E) 838 4.5 -9.5°
Drops below altitude 10° 02:40:48 10° 21° (NNE) 1,973 7.5 -9.0°
Sets 02:43:05 0° 15° (NNE) 2,878 8.3 -8.8°
